Galena, Nevada Weather observations

Data are for 60 minute period ending nearest time listed.
 Day   Time    Ave.   Ave.  Ave.  Vector   Max.   Total    Solar   
  of    of     Air    Rel.  Wind   Wind    Wind  Precip.   Rad.    
Year   Day     Temp.  Hum.  Speed  Dir.    Gust                    
2026   (PST)    F      %     mph   deg.    mph     in.     W/m2    
------------------------------------------------------------------- 
 245    7:00   51.0    48   13.0   174     25.0    2.02      39  
 245    8:00   52.0    46   11.0   180     28.0    2.02      57  
 245    9:00   53.0    48    8.0   192     25.0    2.02      74  
 245   10:00   54.0    45   11.0   195     26.0    2.02     138  
 245   11:00   57.0    40   13.0   193     28.0    2.02     210  
 245   12:00   59.0    35   15.0   187     30.0    2.02     299  
 245   13:00   62.0    30   16.0   196     31.0    2.02     459  
 245   14:00   65.0    26   15.0   180     30.0    2.02     985  
 245   15:00   66.0    25   16.0   170     32.0    2.02     829  
 245   16:00   65.0    26   13.0   183     31.0    2.02     733  
 245   17:00   63.0    28   11.0   192     26.0    2.02     473  
 245   18:00   58.0    36   12.0   192     22.0    2.02     136  
 245   19:00   55.0    41   14.0   184     27.0    2.02      17  
 245   20:00   55.0    39   17.0   191     28.0    2.02       0  
 245   21:00   56.0    26   15.0   221     33.0    2.02       0  
 245   22:00   56.0    22   14.0   225     27.0    2.02       0  
 245   23:00   55.0    26   15.0   214     30.0    2.02       0  
 246    0:00   54.0    34   10.0   209     23.0    2.02       0  
 246    1:00   54.0    41   11.0   189     19.0    2.02       0  
 246    2:00   54.0    37   11.0   187     23.0    2.02       0  
 246    3:00   54.0    37   12.0   186     23.0    2.02       0  
 246    4:00   54.0    27   15.0   190     27.0    2.02       0  
 246    5:00   54.0    26   11.0   203     27.0    2.02       0  
 246    6:00   54.0    37    4.0   263     21.0    2.02       7  

Return to Galena, Nevada graphs page.


Western Regional Climate Center,wrcc@dri.edu